Change the Weather History Date:

Thursday, August 1, 2013

  Actual Average Record
Temperature  
Mean Temperature 67 °F 67 °F  
Max Temperature 80 °F 79 °F 91 °F (2006)
Min Temperature 54 °F 55 °F 44 °F (1998)
Degree Days  
Heating Degree Days 0 1  
Month to date heating degree days 0 1  
Since 1 June heating degree days 143 154  
Since 1 July heating degree days 13 31  
Cooling Degree Days 2 3  
Month to date cooling degree days 2 3  
Year to date cooling degree days 284 171  
Since 1 June cooling degree days 264 163  
Growing Degree Days 16 (Base 50)    
Moisture  
Dew Point 60 °F    
Average Humidity 74    
Maximum Humidity 100    
Minimum Humidity 48    
Precipitation  
Precipitation 0.34 in 0.15 in 0.84 in (1950)
Month to date precipitation 0.34 0.15  
Year to date precipitation 27.57 19.88  
Sea Level Pressure  
Sea Level Pressure 29.91 in    
Wind  
Wind Speed 3 mph (South)    
Max Wind Speed 13 mph    
Max Gust Speed 22 mph    
Visibility 5 miles    
Events Fog , Rain    
T = Trace of Precipitation, MM = Missing Value Source: NWS Daily Summary

Daily Weather History Graph

Daily Weather History Graph

Search for Another Location

Airport or City:

Trip Planner

Search our weather history database for the weather conditions in past years. The results will help you decide how hot, cold, wet, or windy it might be!

Date:

Astronomy

Aug. 01, 2013 Rise Set
Actual Time 5:37 AM EDT 8:15 PM EDT
Civil Twilight 5:04 AM EDT 8:48 PM EDT
Nautical Twilight 4:22 AM EDT 9:30 PM EDT
Astronomical Twilight 3:33 AM EDT 10:18 PM EDT
Moon 1:10 AM EDT (8/1) 4:23 PM EDT (8/1)
Length of Visible Light 15h 44m
Length of Day
14h 38m
Waning Crescent, 23% of the Moon is Illuminated
Aug 1
Waning Crescent
Aug 6
New
Aug 14
First Quarter
Aug 20
Full
Aug 28
Last Quarter

Hourly Weather History & Observations

Time (EDT) Temp. Dew Point Humidity Pressure Visibility Wind Dir Wind Speed Gust Speed Precip Events Conditions
12:54 AM 57.0 °F 55.0 °F 93% 30.04 in 10.0 mi Calm Calm - N/A   Clear
1:54 AM 57.9 °F 55.9 °F 93% 30.03 in 9.0 mi Calm Calm - N/A   Clear
2:54 AM 57.0 °F 55.0 °F 93% 30.02 in 8.0 mi Calm Calm - N/A   Clear
3:54 AM 55.9 °F 54.0 °F 93% 30.01 in 8.0 mi Calm Calm - N/A   Clear
4:54 AM 55.0 °F 53.1 °F 93% 30.00 in 8.0 mi Calm Calm - N/A   Clear
5:41 AM 55.4 °F 53.6 °F 94% 30.00 in 2.0 mi Calm Calm - N/A   Partly Cloudy
5:43 AM 53.6 °F 53.6 °F 100% 30.00 in 1.0 mi Calm Calm - N/A   Mist
5:51 AM 53.6 °F 53.6 °F 100% 30.00 in 0.5 mi Calm Calm - N/A Fog Fog
5:54 AM 54.0 °F 53.1 °F 97% 30.00 in 0.5 mi Calm Calm - N/A Fog Fog
6:07 AM 55.4 °F 53.6 °F 94% 30.00 in 1.2 mi Calm Calm - N/A   Mostly Cloudy
6:10 AM 55.4 °F 53.6 °F 94% 30.00 in 2.5 mi Calm Calm - N/A   Scattered Clouds
6:17 AM 55.4 °F 53.6 °F 94% 30.00 in 5.0 mi Calm Calm - N/A   Partly Cloudy
6:34 AM 55.4 °F 53.6 °F 94% 30.00 in 2.5 mi Calm Calm - N/A   Mostly Cloudy
6:46 AM 55.4 °F 55.4 °F 100% 30.00 in 1.2 mi Calm Calm - N/A   Mostly Cloudy
6:52 AM 57.2 °F 55.4 °F 94% 30.00 in 3.0 mi Calm Calm - N/A   Mostly Cloudy
6:54 AM 57.0 °F 55.0 °F 93% 29.99 in 6.0 mi Calm Calm - N/A   Mostly Cloudy
7:03 AM 57.2 °F 55.4 °F 94% 29.99 in 7.0 mi Calm Calm - N/A   Scattered Clouds
7:54 AM 62.1 °F 59.0 °F 90% 29.99 in 10.0 mi Calm Calm - N/A   Clear
8:54 AM 68.0 °F 59.0 °F 73% 29.97 in 10.0 mi Calm Calm - N/A   Clear
9:54 AM 73.0 °F 60.1 °F 64% 29.94 in 10.0 mi SSW 3.5 mph - N/A   Clear
10:54 AM 75.0 °F 60.1 °F 60% 29.92 in 10.0 mi South 8.1 mph - N/A   Partly Cloudy
11:54 AM 78.1 °F 57.9 °F 50% 29.90 in 10.0 mi South 8.1 mph 18.4 mph N/A   Clear
12:54 PM 79.0 °F 57.9 °F 48% 29.88 in 10.0 mi SSE 12.7 mph 21.9 mph N/A   Partly Cloudy
1:54 PM 77.0 °F 57.0 °F 50% 29.86 in 10.0 mi South 9.2 mph 17.3 mph N/A   Mostly Cloudy
2:54 PM 75.0 °F 57.9 °F 55% 29.85 in 10.0 mi South 6.9 mph 18.4 mph N/A   Overcast
3:54 PM 72.0 °F 60.1 °F 66% 29.85 in 9.0 mi South 9.2 mph 21.9 mph 0.01 in Rain Light Rain
4:54 PM 68.0 °F 63.0 °F 84% 29.86 in 6.0 mi SSW 5.8 mph - 0.02 in Rain Light Rain
5:11 PM 68.0 °F 64.4 °F 88% 29.85 in 7.0 mi Calm Calm - 0.00 in   Overcast
5:31 PM 68.0 °F 62.6 °F 83% 29.85 in 2.5 mi Variable 4.6 mph - 0.02 in Rain Light Rain
5:38 PM 66.2 °F 64.4 °F 94% 29.85 in 1.5 mi Variable 3.5 mph - 0.03 in Rain Light Rain
5:44 PM 66.2 °F 64.4 °F 94% 29.85 in 2.5 mi Variable 3.5 mph - 0.03 in Rain Light Rain
5:51 PM 66.2 °F 64.4 °F 94% 29.85 in 4.0 mi Calm Calm - 0.04 in Rain Light Rain
5:54 PM 66.9 °F 64.0 °F 90% 29.86 in 4.0 mi SSW 3.5 mph - 0.04 in Rain Light Rain
6:06 PM 66.2 °F 64.4 °F 94% 29.86 in 1.8 mi SSW 5.8 mph - 0.03 in Rain Rain
6:22 PM 66.2 °F 64.4 °F 94% 29.86 in 1.0 mi South 4.6 mph - 0.13 in Rain Rain
6:32 PM 66.2 °F 64.4 °F 94% 29.86 in 1.2 mi Calm Calm - 0.17 in Rain Rain
6:43 PM 66.2 °F 64.4 °F 94% 29.86 in 1.5 mi SSW 3.5 mph - 0.19 in Rain Light Rain
6:54 PM 66.0 °F 64.0 °F 93% 29.86 in 1.0 mi Calm Calm - 0.21 in Rain Rain
7:01 PM 66.2 °F 64.4 °F 94% 29.86 in 1.0 mi Calm Calm - 0.02 in Rain Rain
7:04 PM 66.2 °F 64.4 °F 94% 29.86 in 1.2 mi Variable 3.5 mph - 0.03 in Rain Rain
7:20 PM 66.2 °F 64.4 °F 94% 29.86 in 1.5 mi Calm Calm - 0.04 in Rain Light Rain
7:27 PM 66.2 °F 64.4 °F 94% 29.86 in 1.8 mi Variable 3.5 mph - 0.04 in Rain Light Rain
7:49 PM 66.2 °F 64.4 °F 94% 29.85 in 2.0 mi South 3.5 mph - 0.05 in Rain Light Rain
7:54 PM 66.0 °F 64.0 °F 93% 29.85 in 2.5 mi SSE 3.5 mph - 0.05 in Rain Light Rain
8:07 PM 66.2 °F 64.4 °F 94% 29.85 in 4.0 mi Calm Calm - 0.00 in   Overcast
8:54 PM 66.0 °F 64.0 °F 93% 29.85 in 6.0 mi Calm Calm - 0.01 in   Overcast
9:54 PM 64.9 °F 63.0 °F 93% 29.84 in 9.0 mi Calm Calm - N/A   Scattered Clouds
10:06 PM 64.4 °F 62.6 °F 94% 29.84 in 9.0 mi Calm Calm - N/A   Mostly Cloudy
10:37 PM 64.4 °F 62.6 °F 94% 29.83 in 10.0 mi SSW 6.9 mph - N/A   Mostly Cloudy
10:54 PM 64.9 °F 62.1 °F 90% 29.83 in 10.0 mi SSW 5.8 mph - N/A   Mostly Cloudy
11:17 PM 64.4 °F 62.6 °F 94% 29.83 in 10.0 mi East 4.6 mph - N/A   Mostly Cloudy
11:54 PM 64.9 °F 62.1 °F 90% 29.83 in 10.0 mi SSW 4.6 mph - N/A   Overcast